AJ1L Weather Reports


Display with metric or nautical units.
time (UTC)temp
F
wind
direction
speed
MPH
gust
MPH
rain 1hr
in
rain 24hr
in
rain mn
in
humidity
%
barometer
mb
20260505064728 50 233 2.0 4.0 0.00 0.00 0.00 85 1010.9
20260505063048 50 241 2.0 4.0 0.00 0.00 0.00 85 1011.0
20260505055728 51 243 2.0 8.0 0.00 0.00 0.00 83 1011.1
20260505050728 51 233 2.0 6.0 0.00 0.00 0.00 81 1011.0
20260505041728 52 243 2.0 6.0 0.00 0.00 0.00 79 1011.2
20260505040048 52 238 2.0 6.0 0.00 0.00 0.00 78 1011.1
20260505034408 52 236 2.0 5.0 0.00 0.00 0.00 77 1011.1
20260505022048 54 232 3.0 7.0 0.00 0.00 0.00 73 1011.2
20260505020407 54 228 3.0 7.0 0.00 0.00 0.00 71 1011.2
20260505014727 54 229 3.0 7.0 0.00 0.00 0.00 70 1011.3
20260505013048 55 222 3.0 6.0 0.00 0.00 0.00 68 1011.1
20260505005727 56 237 4.0 11.0 0.00 0.00 0.00 65 1010.5
20260505004048 56 230 4.0 9.0 0.00 0.00 0.00 63 1010.1
20260505002407 57 235 4.0 12.0 0.00 0.00 0.00 60 1009.8
20260505000727 58 217 4.0 10.0 0.00 0.00 0.00 57 1009.4
20260504235048 58 219 3.0 8.0 0.00 0.00 0.00 55 1009.2
20260504231727 61 230 4.0 12.0 0.00 0.00 0.00 49 1008.7
20260504230047 62 218 5.0 11.0 0.00 0.00 0.00 46 1008.4
20260504224407 64 209 4.0 12.0 0.00 0.00 0.00 45 1008.3
20260504222728 64 239 6.0 15.0 0.00 0.00 0.00 44 1008.0
20260504221047 65 234 6.0 15.0 0.00 0.00 0.00 43 1007.9
20260504215407 66 230 5.0 15.0 0.00 0.00 0.00 43 1007.9
20260504213727 65 204 6.0 12.0 0.00 0.00 0.00 43 1007.8
20260504210407 67 217 5.0 12.0 0.00 0.00 0.00 40 1007.7
20260504204727 67 222 5.0 11.0 0.00 0.00 0.00 38 1007.6
20260504203048 67 215 5.0 12.0 0.00 0.00 0.00 37 1007.6
20260504201407 68 200 5.0 12.0 0.00 0.00 0.00 37 1007.5
20260504195727 69 228 6.0 14.0 0.00 0.00 0.00 34 1007.6
20260504194047 70 239 7.0 16.0 0.00 0.00 0.00 31 1007.5
20260504192407 70 241 7.0 16.0 0.00 0.00 0.00 29 1007.4
20260504190727 70 251 7.0 14.0 0.00 0.00 0.00 30 1007.5
20260504185048 70 240 7.0 14.0 0.00 0.00 0.00 29 1007.6
20260504183407 70 249 6.0 17.0 0.00 0.00 0.00 29 1007.8
20260504180047 70 256 6.0 16.0 0.00 0.00 0.00 29 1007.9
20260504172733 69 248 8.0 16.0 0.00 0.00 0.00 29 1007.8
20260504171047 69 260 8.0 19.0 0.00 0.00 0.00 31 1007.9
20260504140726 64 258 6.0 15.0 0.00 0.00 0.00 37 1010.2
20260504110406 46 254 2.0 7.0 0.00 0.00 0.00 60 1011.1
20260504081727 44 256 1.0 4.0 0.00 0.00 0.00 59 1010.8